Mitchell, SD

10:05 AM CST on December 08, 2019 (GMT -0600)
Mitchell Municipal

Weather History for KMHE - August, 2019

Change the Weather History Date:

Thursday, August 15, 2019

  Actual Average Record
Temperature  
Mean Temperature 71 °F 72 °F  
Max Temperature 83 °F 84 °F 110 °F (1937)
Min Temperature 59 °F 61 °F 48 °F (1929)
Degree Days  
Heating Degree Days 0 0  
Month to date heating degree days 0 0  
Since 1 June heating degree days 16 40  
Since 1 July heating degree days 0 5  
Cooling Degree Days 6 8  
Month to date cooling degree days 130 127  
Year to date cooling degree days 710 645  
Since 1 June cooling degree days 691 605  
Growing Degree Days 21 (Base 50)    
Moisture  
Dew Point 60 °F    
Average Humidity 71    
Maximum Humidity 90    
Minimum Humidity 51    
Precipitation  
Precipitation T in 0.08 in 1.78 in (1977)
Month to date precipitation 1.56 1.19  
Year to date precipitation 22.48 15.16  
Snow  
Snow 0.00 in - 0.00 in ()
Month to date snowfall 0.0  
Since 1 June snowfall 0.0  
Since 1 July snowfall 0.0  
Snow Depth 0.00 in    
Sea Level Pressure  
Sea Level Pressure 29.95 in    
Wind  
Wind Speed 8 mph (SW)    
Max Wind Speed 20 mph    
Max Gust Speed 28 mph    
Visibility 10 miles    
Events      
T = Trace of Precipitation, MM = Missing Value Source: NWS Daily Summary

Daily Weather History Graph

Daily Weather History Graph

Search for Another Location

Airport or City:

Astronomy

Aug. 15, 2019 Rise Set
Actual Time 6:36 AM CDT 8:36 PM CDT
Civil Twilight 6:05 AM CDT 9:07 PM CDT
Nautical Twilight 5:26 AM CDT 9:45 PM CDT
Astronomical Twilight 4:44 AM CDT 10:26 PM CDT
Moon 9:06 PM CDT (8/15) 6:30 AM CDT (8/15)
Length of Visible Light 15h 02m
Length of Day
13h 59m
Full, 100% of the Moon is Illuminated
Aug 15
Full
Aug 23
Last Quarter
Aug 30
New
Sep 5
First Quarter
Sep 13
Full

Hourly Weather History & Observations

Time (CDT) Temp. Heat Index Dew Point Humidity Pressure Visibility Wind Dir Wind Speed Gust Speed Precip Events Conditions
12:53 AM 61.0 °F - 57.9 °F 90% 30.08 in 10.0 mi Calm Calm - N/A   Clear
1:53 AM 61.0 °F - 57.0 °F 87% 30.07 in 10.0 mi SW 3.5 mph - N/A   Clear
2:53 AM 62.1 °F - 57.9 °F 86% 30.07 in 10.0 mi Calm Calm - N/A   Clear
3:53 AM 61.0 °F - 57.0 °F 87% 30.06 in 10.0 mi SSW 3.5 mph - N/A   Clear
4:53 AM 61.0 °F - 57.9 °F 90% 30.03 in 10.0 mi South 3.5 mph - N/A   Clear
5:53 AM 61.0 °F - 57.0 °F 87% 30.04 in 10.0 mi SSW 4.6 mph - N/A   Clear
6:53 AM 62.1 °F - 57.0 °F 84% 30.03 in 10.0 mi SSW 6.9 mph - N/A   Partly Cloudy
7:53 AM 64.9 °F - 59.0 °F 81% 30.00 in 10.0 mi South 5.8 mph - N/A   Clear
8:53 AM 66.0 °F - 60.1 °F 81% 29.98 in 10.0 mi SSE 6.9 mph - N/A   Clear
9:53 AM 71.1 °F - 62.1 °F 73% 29.97 in 10.0 mi SE 10.4 mph - N/A   Clear
10:53 AM 75.9 °F - 62.1 °F 62% 29.95 in 10.0 mi SSE 9.2 mph - N/A   Clear
11:53 AM 77.0 °F - 62.1 °F 60% 29.95 in 10.0 mi South 10.4 mph - N/A   Clear
12:53 PM 79.0 °F - 62.1 °F 56% 29.92 in 10.0 mi South 12.7 mph - N/A   Clear
1:53 PM 81.0 °F 81.7 °F 61.0 °F 50% 29.91 in 10.0 mi SW 11.5 mph 20.7 mph N/A   Clear
2:53 PM 81.0 °F 81.7 °F 61.0 °F 50% 29.89 in 10.0 mi South 15.0 mph 23.0 mph N/A   Scattered Clouds
3:53 PM 77.0 °F - 62.1 °F 60% 29.89 in 10.0 mi SSW 9.2 mph - N/A   Mostly Cloudy
4:53 PM 77.0 °F - 63.0 °F 62% 29.85 in 10.0 mi South 10.4 mph - 0.00 in   Scattered Clouds
5:53 PM 80.1 °F 81.9 °F 64.9 °F 60% 29.82 in 10.0 mi SSW 11.5 mph - N/A   Clear
6:23 PM 80.1 °F 81.2 °F 62.1 °F 54% 29.86 in 10.0 mi WNW 18.4 mph 24.2 mph N/A   Partly Cloudy
6:53 PM 78.1 °F - 61.0 °F 56% 29.85 in 10.0 mi NW 13.8 mph 27.6 mph N/A   Partly Cloudy
7:53 PM 72.0 °F - 59.0 °F 64% 29.87 in 10.0 mi North 10.4 mph - N/A   Clear
8:53 PM 66.0 °F - 59.0 °F 78% 29.88 in 10.0 mi WNW 3.5 mph - N/A   Clear
9:53 PM 66.0 °F - 57.9 °F 75% 29.89 in 10.0 mi NW 10.4 mph - N/A   Clear
10:53 PM 62.1 °F - 57.0 °F 84% 29.90 in 10.0 mi NW 5.8 mph - N/A   Clear
11:53 PM 60.1 °F - 55.9 °F 86% 29.90 in 10.0 mi West 4.6 mph - N/A   Clear